Platteville, WI

6:20 AM CDT on May 29, 2017 (GMT -0500)
Platteville Municipal

Weather History for KPVB - November, 2013

Change the Weather History Date:

Friday, November 8, 2013

  Actual Average (KDBQ) Record (KDBQ)
Temperature  
Mean Temperature 36 °F -  
Max Temperature 47 °F 46 °F 75 °F (1999)
Min Temperature 24 °F 30 °F 2 °F (1991)
Degree Days  
Heating Degree Days 30    
Moisture  
Dew Point 28 °F    
Average Humidity 70    
Maximum Humidity 91    
Minimum Humidity 47    
Precipitation  
Precipitation 0.00 in - - ()
Sea Level Pressure  
Sea Level Pressure 30.10 in    
Wind  
Wind Speed 9 mph (SSE)    
Max Wind Speed 31 mph    
Max Gust Speed 40 mph    
Visibility 10 miles    
Events      
Averages and records for this station are not official NWS values.
T = Trace of Precipitation, MM = Missing Value Source: NWS Daily Summary

Daily Weather History Graph

Daily Weather History Graph

Search for Another Location

Airport or City:

Trip Planner

Search our weather history database for the weather conditions in past years. The results will help you decide how hot, cold, wet, or windy it might be!

Date:

Astronomy

Nov. 08, 2013 Rise Set
Actual Time 6:44 AM CST 4:45 PM CST
Civil Twilight 6:14 AM CST 5:15 PM CST
Nautical Twilight 5:41 AM CST 5:49 PM CST
Astronomical Twilight 5:08 AM CST 6:22 PM CST
Moon 11:40 AM CST (11/8) 10:07 PM CST (11/8)
Length of Visible Light 11h 00m
Length of Day
10h 00m
Waxing Crescent, 33% of the Moon is Illuminated
Nov 8
Waxing Crescent
Nov 9
First Quarter
Nov 17
Full
Nov 25
Last Quarter
Dec 2
New

Hourly Weather History & Observations

Time (CST) Temp. Windchill Dew Point Humidity Pressure Visibility Wind Dir Wind Speed Gust Speed Precip Events Conditions
12:15 AM 28.0 °F 22.8 °F 24.3 °F 86% 30.25 in 10.0 mi West 4.6 mph - N/A   Clear
12:35 AM 28.0 °F 20.8 °F 24.4 °F 86% 30.25 in 10.0 mi WSW 6.9 mph - N/A   Clear
12:55 AM 26.6 °F 21.2 °F 23.9 °F 90% 30.25 in 10.0 mi WSW 4.6 mph - N/A   Clear
1:15 AM 27.5 °F - 25.0 °F 90% 30.25 in 10.0 mi Calm Calm - N/A   Mostly Cloudy
1:35 AM 28.6 °F 24.8 °F 25.3 °F 88% 30.24 in 10.0 mi WSW 3.5 mph - N/A   Scattered Clouds
1:55 AM 28.9 °F 25.2 °F 25.3 °F 86% 30.24 in 10.0 mi SW 3.5 mph - N/A   Clear
2:15 AM 29.1 °F 23.0 °F 25.2 °F 85% 30.25 in 10.0 mi SW 5.8 mph - N/A   Clear
2:35 AM 28.0 °F 22.8 °F 24.6 °F 87% 30.25 in 10.0 mi SSW 4.6 mph - N/A   Clear
2:55 AM 28.2 °F 24.4 °F 25.2 °F 88% 30.25 in 10.0 mi SSW 3.5 mph - N/A   Clear
3:15 AM 28.6 °F 24.8 °F 25.7 °F 89% 30.24 in 10.0 mi SW 3.5 mph - N/A   Clear
3:35 AM 28.0 °F 24.2 °F 25.3 °F 90% 30.25 in 10.0 mi SSW 3.5 mph - N/A   Clear
3:55 AM 26.6 °F 22.6 °F 24.3 °F 91% 30.25 in 10.0 mi SSW 3.5 mph - N/A   Clear
4:15 AM 27.1 °F 21.8 °F 24.6 °F 90% 30.25 in 10.0 mi South 4.6 mph - N/A   Clear
4:35 AM 27.1 °F 23.2 °F 24.1 °F 88% 30.25 in 10.0 mi SSE 3.5 mph - N/A   Clear
4:55 AM 26.6 °F - 23.7 °F 89% 30.25 in 10.0 mi Calm Calm - N/A   Clear
5:15 AM 26.2 °F 22.1 °F 23.2 °F 88% 30.25 in 10.0 mi South 3.5 mph - N/A   Clear
5:35 AM 24.8 °F 20.5 °F 22.5 °F 91% 30.26 in 10.0 mi South 3.5 mph - N/A   Clear
5:55 AM 25.0 °F 19.3 °F 22.6 °F 91% 30.26 in 10.0 mi South 4.6 mph - N/A   Clear
6:15 AM 25.3 °F 21.1 °F 22.8 °F 90% 30.26 in 10.0 mi South 3.5 mph - N/A   Clear
6:35 AM 27.0 °F - 23.9 °F 88% 30.26 in 10.0 mi Calm Calm - N/A   Clear
6:55 AM 24.8 °F 20.5 °F 21.4 °F 87% 30.26 in 10.0 mi South 3.5 mph - N/A   Clear
7:15 AM 25.0 °F 20.7 °F 22.5 °F 90% 30.26 in 10.0 mi South 3.5 mph - N/A   Clear
7:35 AM 26.8 °F 22.8 °F 23.9 °F 89% 30.27 in 10.0 mi SSE 3.5 mph - N/A   Clear
7:55 AM 28.9 °F 23.9 °F 25.5 °F 87% 30.27 in 10.0 mi SSE 4.6 mph - N/A   Clear
8:15 AM 29.8 °F 24.9 °F 26.4 °F 87% 30.26 in 10.0 mi SE 4.6 mph - N/A   Clear
8:35 AM 31.1 °F 24.5 °F 27.7 °F 87% 30.26 in 10.0 mi SE 6.9 mph - N/A   Clear
8:55 AM 32.2 °F 26.7 °F 28.9 °F 88% 30.25 in 10.0 mi SSE 5.8 mph - N/A   Clear
9:15 AM 34.0 °F 28.8 °F 29.8 °F 85% 30.24 in 10.0 mi SE 5.8 mph - N/A   Clear
9:35 AM 34.2 °F 29.0 °F 29.3 °F 82% 30.23 in 10.0 mi SE 5.8 mph - N/A   Clear
9:55 AM 35.1 °F 29.3 °F 30.2 °F 82% 30.23 in 10.0 mi SSE 6.9 mph - N/A   Clear
10:15 AM 35.6 °F 29.9 °F 30.7 °F 82% 30.23 in 10.0 mi SSE 6.9 mph - N/A   Clear
10:35 AM 37.2 °F 30.6 °F 30.2 °F 76% 30.22 in 10.0 mi SE 9.2 mph - N/A   Clear
10:55 AM 39.9 °F 33.9 °F 31.1 °F 71% 30.21 in 10.0 mi SSE 9.2 mph - N/A   Clear
11:15 AM 40.8 °F 34.5 °F 31.1 °F 68% 30.20 in 10.0 mi SSE 10.4 mph - N/A   Clear
11:35 AM 42.3 °F 35.5 °F 30.2 °F 62% 30.19 in 10.0 mi SSE 12.7 mph - N/A   Clear
11:55 AM 43.3 °F 37.2 °F 29.8 °F 59% 30.17 in 10.0 mi SSE 11.5 mph - N/A   Clear
12:15 PM 44.2 °F 37.6 °F 28.6 °F 54% 30.16 in 10.0 mi SSE 13.8 mph - N/A   Clear
12:35 PM 44.8 °F 38.3 °F 26.8 °F 49% 30.14 in 10.0 mi SSE 13.8 mph 18.4 mph N/A   Clear
12:55 PM 45.5 °F 39.2 °F 26.1 °F 47% 30.13 in 10.0 mi SSE 13.8 mph - N/A   Clear
1:15 PM 45.5 °F 39.2 °F 26.4 °F 47% 30.11 in 10.0 mi SSE 13.8 mph - N/A   Clear
1:35 PM 46.2 °F 39.5 °F 27.3 °F 48% 30.09 in 10.0 mi SE 16.1 mph - N/A   Clear
1:55 PM 46.6 °F - 27.1 °F 47% 30.09 in 10.0 mi SSE 17.3 mph - N/A   Clear
2:15 PM 45.5 °F 39.2 °F 27.1 °F 49% 30.08 in 10.0 mi SSE 13.8 mph 17.3 mph N/A   Clear
2:35 PM 44.8 °F 37.7 °F 29.1 °F 54% 30.06 in 10.0 mi SE 16.1 mph - N/A   Clear
2:55 PM 46.0 °F 39.0 °F 30.0 °F 54% 30.04 in 10.0 mi SE 17.3 mph - N/A   Clear
3:15 PM 45.5 °F 38.9 °F 30.0 °F 55% 30.03 in 10.0 mi SSE 15.0 mph - N/A   Clear
3:35 PM 45.0 °F 37.4 °F 29.5 °F 55% 30.01 in 10.0 mi SE 18.4 mph - N/A   Clear
3:55 PM 44.4 °F 36.9 °F 29.5 °F 56% 30.00 in 10.0 mi SSE 17.3 mph 21.9 mph N/A   Clear
4:15 PM 44.6 °F 36.4 °F 28.9 °F 54% 29.98 in 10.0 mi SE 20.7 mph 25.3 mph N/A   Clear
4:35 PM 43.7 °F 35.7 °F 28.8 °F 56% 29.96 in 10.0 mi SE 18.4 mph 25.3 mph N/A   Clear
4:55 PM 43.7 °F 35.4 °F 27.7 °F 53% 29.96 in 10.0 mi SE 19.6 mph 27.6 mph N/A   Clear
5:15 PM 43.0 °F 35.7 °F 27.7 °F 55% 29.96 in 10.0 mi SE 15.0 mph - N/A   Clear
5:35 PM 42.6 °F 34.3 °F 28.2 °F 57% 29.96 in 10.0 mi SE 18.4 mph 21.9 mph N/A   Clear
5:55 PM 42.4 °F 34.7 °F 28.8 °F 58% 29.97 in 10.0 mi SSE 16.1 mph 21.9 mph N/A   Clear
6:15 PM 42.3 °F 34.4 °F 29.5 °F 61% 29.97 in 10.0 mi SSE 16.1 mph - N/A   Clear
6:35 PM 42.8 °F 35.4 °F 29.8 °F 60% 29.98 in 10.0 mi SSE 15.0 mph - N/A   Clear
6:55 PM 42.8 °F 36.2 °F 30.4 °F 62% 29.97 in 10.0 mi SSE 12.7 mph 21.9 mph N/A   Clear
7:15 PM 43.0 °F 35.7 °F 30.7 °F 62% 29.96 in 10.0 mi SSE 15.0 mph 23.0 mph N/A   Clear
7:35 PM 43.2 °F 35.9 °F 31.1 °F 62% 29.94 in 10.0 mi SSE 15.0 mph - N/A   Clear
7:55 PM 43.7 °F 35.4 °F 31.6 °F 63% 29.92 in 10.0 mi SSE 19.6 mph 26.5 mph N/A   Clear
8:15 PM 44.4 °F 36.1 °F 31.8 °F 61% 29.91 in 10.0 mi SSE 20.7 mph 28.8 mph N/A   Clear
8:35 PM 45.0 °F 36.6 °F 31.8 °F 60% 29.90 in 10.0 mi SSE 21.9 mph 29.9 mph N/A   Clear
8:55 PM 45.5 °F 36.9 °F 32.0 °F 59% 29.89 in 10.0 mi SSE 24.2 mph 31.1 mph N/A   Clear
9:15 PM 45.5 °F 37.3 °F 32.0 °F 59% 29.87 in 10.0 mi SSE 21.9 mph 29.9 mph N/A   Clear
9:35 PM 45.5 °F 37.8 °F 32.0 °F 59% 29.85 in 10.0 mi SSE 19.6 mph 28.8 mph N/A   Clear
9:55 PM 46.2 °F 38.5 °F 32.0 °F 58% 29.83 in 10.0 mi SSE 20.7 mph 36.8 mph N/A   Clear
10:15 PM 46.4 °F 38.1 °F 32.0 °F 57% 29.81 in 10.0 mi South 24.2 mph 38.0 mph N/A   Clear
10:35 PM 47.3 °F - 32.0 °F 55% 29.80 in 10.0 mi South 31.1 mph 36.8 mph N/A   Clear
10:55 PM 47.3 °F - 32.2 °F 56% 29.78 in 10.0 mi South 27.6 mph 40.3 mph N/A   Scattered Clouds
11:15 PM 46.4 °F 37.2 °F 32.5 °F 59% 29.77 in 10.0 mi South 29.9 mph 35.7 mph N/A   Clear
11:35 PM 46.4 °F 38.7 °F 32.9 °F 59% 29.78 in 10.0 mi South 20.7 mph 32.2 mph N/A   Clear
11:55 PM 46.8 °F - 32.9 °F 59% 29.78 in 10.0 mi South 19.6 mph 27.6 mph N/A   Clear